Tracking 35275 objects as of 8-Sep-2026
HD Live streaming from Space Station
objects crossing your sky now

COSMOS 1402 DEB (ANTENNA


COSMOS 1402 DEB (ANTENNA is no longer on orbit


NORAD ID: 13747
Int'l Code: 1982-084B
Launch date: August 30, 1982
Source: Commonwealth of Independent States (former USSR) (CIS)
Launch site: TYURATAM MISSILE AND SPACE COMPLEX (TTMTR)
Decay date: 1982-12-30

Note: This is SATELLITE DEBRIS
Your satellite tracking list
Your tracking list is empty




NASA's NSSDC Master Catalog

Two Line Element Set (TLE):
1 13747U 82084  B 82364.67211053  .33266449 +02784-5 +08072-3 0  9995
2 13747 064.9856 076.6141 0007465 289.2316 070.8720 16.41968155019640
Source of the keplerian elements: AFSPC